{"data":{"norad_id":69100,"epoch":"2026-09-20T03:47:16.970784Z","epoch_age_seconds":52872,"freshness":"FRESH","line1":"1 69100U 26106D   26263.15783531  .00001143  00000+0  67568-4 0  9997","line2":"2 69100  97.5069 343.6521 0001617  88.4521 271.6895 15.13465871 19336","mean_motion":15.13465871,"eccentricity":0.0001617,"inclination_deg":97.5069,"raan_deg":343.6521,"arg_perigee_deg":88.4521,"mean_anomaly_deg":271.6895,"bstar":6.7568e-5,"rev_number":1933,"period_min":95.145852152486,"perigee_km":524.52363746391,"apogee_km":526.75631893866,"semimajor_km":6903.7769782013,"source":"CELESTRAK","updated_at":"2026-09-20T09:00:24.676360Z"}}